Location: Newark
(37.9128°N, 122.4756°W)
Time: 09:28:05
(UTC+00:00)

N. Korean satellite - Visible Passes

Search period start: 22 November 2019 00:00
Search period end: 02 December 2019 00:00
Orbit: 456 x 506 km, 97.2° (Epoch: 21 November)

Date Brightness Start Highest point End Pass type
(mag) Time Alt. Az. Time Alt. Az. Time Alt. Az.
22 Nov 6.7 01:18:32 10° SSE 01:22:11 87° W 01:25:54 10° NNW visible
22 Nov 6.8 14:20:02 10° N 14:23:37 50° WNW 14:27:07 10° SSW visible
23 Nov 10.3 02:29:29 10° WSW 02:30:26 11° W 02:31:25 10° WNW visible
23 Nov 6.9 13:54:35 10° NNE 13:58:16 70° E 14:01:51 10° S visible
24 Nov 9.4 02:01:56 10° SSW 02:04:52 23° W 02:07:50 10° NW visible
24 Nov 8.7 13:29:32 10° NNE 13:32:48 30° E 13:36:00 10° SSE visible
25 Nov 7.7 01:35:50 10° S 01:39:22 49° W 01:42:59 10° NNW visible
25 Nov 9.9 13:05:11 10° ENE 13:07:15 14° E 13:09:18 10° SE visible
26 Nov 6.5 14:11:47 10° N 14:15:24 66° WNW 14:18:56 10° SSW visible
27 Nov 10.0 02:20:10 10° SW 02:22:08 14° W 02:24:07 10° WNW visible
27 Nov 7.4 13:46:26 10° NNE 13:50:00 52° E 13:53:30 10° S visible
28 Nov 8.9 01:53:22 10° SSW 01:56:35 28° W 01:59:51 10° NW visible
28 Nov 9.1 13:21:33 10° NE 13:24:31 23° E 13:27:26 10° SSE visible
29 Nov 7.2 01:27:27 10° S 01:31:08 64° W 01:34:49 10° NNW visible
29 Nov 10.1 12:57:47 10° ENE 12:58:55 11° E 13:00:02 10° ESE visible
29 Nov 7.1 14:29:06 10° N 14:32:29 37° WNW 14:35:46 10° SW visible
30 Nov 6.5 14:03:30 10° N 14:07:08 86° WNW 14:10:40 10° SSW visible
01 Dec 9.8 02:11:16 10° SW 02:13:48 18° W 02:16:22 10° NW visible
01 Dec 8.0 13:38:17 10° NNE 13:41:42 40° E 13:45:02 10° S visible
